Regional Weather Roundup
Issued by NWS

Home | Current Version | Previous Version | Text Only | Print | Product List | Glossary Off
Versions: 1 2 3 4 5 6 7 8 9 10 11 12 13 14 15 16 17 18 19 20 21 22 23 24 25 26 27 28 29 30 31 32 33 34 35 36 37 38 39 40 41 42 43 44 45 46 47 48 49 50

000
ASUS43 KBIS 142302
RWRND

NORTH DAKOTA REGIONAL WEATHER ROUNDUP
NATIONAL WEATHER SERVICE BISMARCK ND
500 PM CST THU DEC 14 2017

NOTE: "FAIR" INDICATES FEW OR NO CLOUDS BELOW 12,000 FEET WITH NO
SIGNIFICANT WEATHER AND/OR OBSTRUCTIONS TO VISIBILITY.


NDZ001>003-009>011-017-150000-
NORTHWEST NORTH DAKOTA

CITY           SKY/WX    TMP DP  RH WIND       PRES   REMARKS
WILLISTON      CLEAR     33  24  69 W8        30.11F
MINOT          CLOUDY    35  25  66 W18G25    30.05S
MINOT AFB      CLOUDY    34  24  68 NW20G26   30.03S
$$

NDZ018>021-031>035-040>046-150000-
SOUTHWEST NORTH DAKOTA

CITY           SKY/WX    TMP DP  RH WIND       PRES   REMARKS
BISMARCK       CLOUDY    35  25  66 W9        30.10F
DICKINSON      CLOUDY    32  24  72 W18G25    30.09F
GARRISON         N/A     33  24  69 NW20G29   30.07S
HETTINGER ARPT CLOUDY    33  24  69 NW21G26   30.16S
$$

NDZ004>008-012>016-024-026-027-054-150000-
NORTHEAST NORTH DAKOTA

CITY           SKY/WX    TMP DP  RH WIND       PRES   REMARKS
GRAND FORKS    CLOUDY    20  16  84 NE3       30.05F
GRND FRKS AFB  FLURRIES  21  17  84 E5        30.04S WCI  14
DEVILS LAKE    CLOUDY    29  25  85 W10       30.02F WCI  20
$$

NDZ022-023-025-028>030-036>039-047>053-150000-
SOUTHEAST NORTH DAKOTA

CITY           SKY/WX    TMP DP  RH WIND       PRES   REMARKS
FARGO          LGT SNOW  24  20  84 NW3       30.06F FOG
JAMESTOWN      CLOUDY    30  26  85 NW13      30.04F WCI  20
$$




USA.gov is the U.S. government's official web portal to all federal, state and local government web resources and services.